Date String (YYYY-MM-DD hh:mm:ss) UTC,Instrument flags,Ambient pressure (hPa),Sample flow (lpm),Bypass flow (lpm),Sample temperature (°C),Ambient temperature (°C),ASC tube jacket temperature (°C),LED temperature (°C),Box temperature (°C),Sample RH (%),Span deviation,Mass concentration (μg/m³),Mass concentration (μg/m³),Mass concentration (μg/m³)
DateTimeUTC,F1_M11,P_M11,Q1_M11,Q2_M11,T1_M11,T2_M11,T3_M11,T4_M11,T5_M11,U1_M11,ZSPAN_M11,X0_M11,X2_M11,X1_M11
2022-10-29 16:00:00,,0831.2,4.98,0.00,23.8,22.6,00.0,32.5,25.7,12.0,0005.8,0014.89,0007.36,0006.96
2022-10-29 16:01:00,,0831.2,5.01,0.00,23.8,22.6,00.0,32.6,25.7,11.8,0005.7,0014.98,0007.26,0006.92
2022-10-29 16:02:00,,0831.2,5.01,0.00,23.8,22.6,00.0,32.6,25.7,11.7,0005.8,0015.13,0007.22,0006.88
2022-10-29 16:03:00,,0831.2,5.00,0.00,23.8,22.7,00.0,32.6,25.7,12.0,0005.7,0015.47,0007.19,0006.83
2022-10-29 16:04:00,,0831.2,5.01,0.00,23.9,22.7,00.0,32.6,25.8,12.0,0005.9,0015.03,0007.11,0006.76
2022-10-29 16:05:00,,0831.2,5.01,0.00,23.9,22.7,00.0,32.6,25.8,12.0,0005.8,0015.48,0007.05,0006.69
2022-10-29 16:06:00,,0831.2,4.98,0.00,23.9,22.7,00.0,32.6,25.7,11.7,0005.7,0015.83,0006.95,0006.58
2022-10-29 16:07:00,,0831.2,5.01,0.00,23.9,22.7,00.0,32.6,25.7,11.6,0005.8,0015.98,0006.86,0006.47
2022-10-29 16:08:00,,0831.1,5.00,0.00,23.9,22.7,00.0,32.6,25.8,11.7,0005.8,0015.39,0006.74,0006.32
2022-10-29 16:09:00,,0831.1,5.01,0.00,23.9,22.7,00.0,32.7,25.9,11.6,0005.4,0014.02,0006.56,0006.15
2022-10-29 16:10:00,,0831.1,4.98,0.00,23.9,22.8,00.0,32.7,25.9,11.9,0005.1,0012.30,0006.40,0005.98
2022-10-29 16:11:00,,0831.1,5.01,0.00,23.9,22.8,00.0,32.7,25.9,11.9,0005.1,0012.31,0006.27,0005.83
2022-10-29 16:12:00,,0831.1,5.01,0.00,24.0,22.8,00.0,32.7,25.9,11.6,0000.0,0012.00,0006.18,0005.71
2022-10-29 16:13:00,,0831.1,5.01,0.00,24.0,22.8,00.0,32.7,25.9,11.1,0000.0,0011.89,0006.06,0005.56
2022-10-29 16:14:00,,0831.2,4.99,0.00,24.0,22.8,00.0,32.7,25.9,11.0,0000.0,0011.34,0005.91,0005.39
2022-10-29 16:15:00,,0831.1,5.00,0.00,24.0,22.8,00.0,32.7,25.9,10.7,0000.0,0011.10,0005.80,0005.25
2022-10-29 16:16:00,,0831.1,5.00,0.00,24.0,22.8,00.0,32.7,26.0,10.7,0000.0,0011.08,0005.65,0005.10
2022-10-29 16:17:00,,0831.1,4.99,0.00,24.0,22.9,00.0,32.8,26.0,11.4,0000.0,0010.61,0005.57,0005.01
2022-10-29 16:18:00,,0831.1,5.01,0.00,24.0,22.9,00.0,32.8,26.0,10.8,0000.0,0010.63,0005.49,0004.92
2022-10-29 16:19:00,,0831.0,5.01,0.00,24.0,22.9,00.0,32.8,26.0,09.9,0000.0,0010.43,0005.34,0004.79
2022-10-29 16:20:00,,0831.0,5.00,0.00,24.1,22.9,00.0,32.8,26.0,10.0,0000.0,0010.45,0005.23,0004.65
2022-10-29 16:21:00,,0831.0,5.00,0.00,24.1,22.9,00.0,32.8,26.0,10.4,0000.0,0010.57,0005.15,0004.55
2022-10-29 16:22:00,,0831.0,5.00,0.00,24.1,22.9,00.0,32.8,26.0,10.7,0000.0,0010.38,0005.05,0004.47
2022-10-29 16:23:00,,0831.1,4.98,0.00,24.1,23.0,00.0,32.8,26.0,10.9,0000.0,0009.98,0004.96,0004.39
2022-10-29 16:24:00,,0831.0,5.00,0.00,24.1,23.0,00.0,32.8,26.1,11.1,0000.0,0009.93,0004.91,0004.36
2022-10-29 16:25:00,,0831.0,5.01,0.00,24.1,23.0,00.0,32.9,26.1,11.4,0000.0,0009.86,0004.88,0004.35
2022-10-29 16:26:00,,0831.1,5.01,0.00,24.2,23.0,00.0,32.9,26.1,11.5,0000.0,0009.73,0004.85,0004.33
2022-10-29 16:27:00,,0831.1,4.98,0.00,24.2,23.1,00.0,32.9,26.1,11.2,0000.0,0009.12,0004.84,0004.31
2022-10-29 16:28:00,,0831.1,5.01,0.00,24.2,23.1,00.0,32.9,26.1,11.2,0000.0,0008.92,0004.78,0004.28
2022-10-29 16:29:00,,0831.1,5.01,0.00,24.2,23.1,00.0,32.9,26.1,12.0,0000.0,0008.50,0004.74,0004.27
2022-10-29 16:30:00,,0831.1,5.00,0.00,24.2,23.1,00.0,32.9,26.2,12.2,0000.0,0008.41,0004.83,0004.37
2022-10-29 16:31:00,,0831.1,4.98,0.00,24.2,23.1,00.0,33.0,26.2,11.8,0000.0,0008.33,0004.90,0004.46
2022-10-29 16:32:00,,0831.1,5.00,0.00,24.3,23.2,00.0,33.0,26.2,11.7,0000.0,0007.94,0004.90,0004.52
2022-10-29 16:33:00,,0831.1,5.01,0.00,24.3,23.2,00.0,33.0,26.2,11.5,0000.0,0007.99,0004.92,0004.57
2022-10-29 16:34:00,,0831.1,5.00,0.00,24.3,23.2,00.0,33.0,26.3,11.7,0000.0,0008.17,0004.95,0004.59
2022-10-29 16:35:00,,0831.1,4.99,0.00,24.3,23.2,00.0,33.0,26.3,11.6,0000.0,0008.15,0005.01,0004.62
2022-10-29 16:36:00,,0831.2,5.00,0.00,24.3,23.2,00.0,33.0,26.3,11.6,0000.0,0008.20,0005.04,0004.64
2022-10-29 16:37:00,,0831.2,5.01,0.00,24.4,23.3,00.0,33.1,26.3,11.5,0000.0,0008.35,0005.08,0004.67
2022-10-29 16:38:00,,0831.2,5.00,0.00,24.4,23.3,00.0,33.1,26.3,11.5,0000.0,0008.40,0005.13,0004.73
2022-10-29 16:39:00,,0831.2,4.98,0.00,24.4,23.3,00.0,33.1,26.4,11.5,0002.6,0008.87,0005.21,0004.81
2022-10-29 16:40:00,,0831.2,5.01,0.00,24.4,23.3,00.0,33.1,26.4,11.8,0000.0,0009.45,0005.26,0004.85
2022-10-29 16:41:00,,0831.2,5.01,0.00,24.4,23.3,00.0,33.1,26.4,12.1,0000.0,0009.43,0005.25,0004.85
2022-10-29 16:42:00,,0831.2,5.01,0.00,24.4,23.4,00.0,33.1,26.4,11.9,0000.0,0009.60,0005.28,0004.85
2022-10-29 16:43:00,,0831.2,4.98,0.00,24.5,23.4,00.0,33.2,26.4,12.0,0000.0,0009.61,0005.29,0004.86
2022-10-29 16:44:00,,0831.2,5.01,0.00,24.5,23.4,00.0,33.2,26.5,11.6,0000.0,0009.47,0005.33,0004.89
2022-10-29 16:45:00,,0831.2,5.00,0.00,24.5,23.4,00.0,33.2,26.5,11.8,0000.7,0009.39,0005.39,0004.94
2022-10-29 16:46:00,,0831.2,5.01,0.00,24.5,23.4,00.0,33.2,26.5,11.6,0000.0,0010.10,0005.43,0005.02
2022-10-29 16:47:00,,0831.2,4.98,0.00,24.5,23.4,00.0,33.3,26.5,11.8,0000.0,0010.52,0005.53,0005.13
2022-10-29 16:48:00,,0831.2,5.01,0.00,24.6,23.5,00.0,33.3,26.5,12.2,0001.0,0010.53,0005.64,0005.25
2022-10-29 16:49:00,,0831.2,5.01,0.00,24.6,23.5,00.0,33.3,26.5,12.0,0000.0,0010.66,0005.77,0005.39
2022-10-29 16:50:00,,0831.2,5.01,0.00,24.6,23.5,00.0,33.3,26.6,11.9,0001.2,0010.57,0005.90,0005.54
2022-10-29 16:51:00,,0831.2,4.98,0.00,24.6,23.5,00.0,33.3,26.6,11.8,0004.6,0010.17,0006.07,0005.71
2022-10-29 16:52:00,,0831.2,5.01,0.00,24.6,23.5,00.0,33.3,26.6,12.0,0004.7,0010.48,0006.24,0005.88
2022-10-29 16:53:00,,0831.2,5.00,0.00,24.6,23.5,00.0,33.4,26.6,12.3,0004.8,0010.80,0006.39,0006.03
2022-10-29 16:54:00,,0831.2,5.01,0.00,24.7,23.6,00.0,33.4,26.6,12.2,0005.0,0011.06,0006.54,0006.16
2022-10-29 16:55:00,,0831.2,4.98,0.00,24.7,23.6,00.0,33.4,26.6,12.2,0004.9,0011.28,0006.66,0006.26
2022-10-29 16:56:00,,0831.2,5.01,0.00,24.7,23.6,00.0,33.4,26.6,11.8,0005.3,0011.40,0006.75,0006.34
2022-10-29 16:57:00,,0831.2,5.01,0.00,24.7,23.6,00.0,33.4,26.7,12.0,0005.6,0010.81,0006.82,0006.39
2022-10-29 16:58:00,,0831.2,5.00,0.00,24.7,23.6,00.0,33.4,26.7,12.0,0005.6,0010.51,0006.87,0006.42
2022-10-29 16:59:00,,0831.2,4.99,0.00,24.7,23.6,00.0,33.5,26.7,12.2,0006.2,0010.52,0006.89,0006.43
